Total_Precipitation_Accumulation
1.36 1.42 1.47 1.48 1.50 1.47 1.43 1.36 1.43 1.49 1.52 1.51 1.56 1.64 1.69 1.73 1.85 1.98 1.97 2.08 2.08 2.05 2.04 2.16 2.28 2.48 2.43 2.27 2.42 2.56 2.72 2.92 2.60 2.34 2.21 1.99 2.01 1.91 1.83 1.75 1.59 1.56 1.40
1.33 1.45 1.64 1.61 1.60 1.53 1.41 1.36 1.42 1.43 1.45 1.48 1.56 1.63 1.61 1.71 1.88 1.97 1.96 2.09 2.10 2.02 2.06 2.20 2.19 2.28 2.36 2.26 2.26 2.28 2.48 2.72 2.64 2.46 2.49 2.40 2.24 2.15 2.12 1.99 1.64 1.48 1.45
1.42 1.48 1.61 1.63 1.59 1.49 1.39 1.36 1.37 1.38 1.43 1.47 1.46 1.50 1.55 1.65 1.80 1.86 1.95 2.04 2.11 2.12 2.09 2.01 1.95 2.10 2.24 2.40 2.41 2.34 2.38 2.51 2.69 2.58 2.52 2.61 2.39 2.17 2.29 2.14 1.93 1.91 1.51
1.23 1.28 1.37 1.32 1.31 1.33 1.34 1.31 1.30 1.36 1.41 1.48 1.49 1.56 1.61 1.66 1.71 1.80 1.87 1.81 1.79 1.77 1.78 1.80 1.79 1.85 2.01 2.40 2.43 2.48 2.48 2.49 2.67 2.69 2.66 2.69 2.71 2.49 2.50 2.29 2.15 2.02 1.76
1.15 1.21 1.29 1.35 1.33 1.34 1.29 1.23 1.31 1.39 1.36 1.48 1.56 1.55 1.59 1.60 1.52 1.61 1.61 1.54 1.59 1.51 1.46 1.45 1.45 1.54 1.58 1.74 1.80 2.10 2.35 2.45 2.53 2.65 2.66 2.70 2.72 2.83 2.56 2.38 2.33 2.25 2.08
0.94 1.02 1.23 1.38 1.40 1.36 1.26 1.26 1.34 1.41 1.47 1.55 1.58 1.56 1.53 1.39 1.55 1.60 1.55 1.46 1.44 1.39 1.32 1.28 1.24 1.30 1.37 1.38 1.36 1.53 1.80 2.08 2.37 2.60 2.65 2.69 2.77 2.85 2.84 2.66 2.52 2.35 2.23
0.89 0.94 1.04 1.17 1.24 1.19 1.12 1.14 1.20 1.30 1.44 1.51 1.58 1.67 1.67 1.69 1.70 1.60 1.51 1.36 1.33 1.30 1.28 1.30 1.11 1.06 1.18 1.13 1.24 1.28 1.34 1.51 1.68 2.06 2.32 2.37 2.52 2.63 2.82 2.74 2.68 2.60 2.45
1.02 1.07 1.05 1.11 1.20 1.23 1.19 1.19 1.31 1.39 1.44 1.50 1.55 1.63 1.70 1.64 1.67 1.52 1.40 1.21 1.22 1.29 1.28 1.29 1.25 1.22 1.23 1.26 1.31 1.25 1.17 1.21 1.30 1.38 1.48 1.67 1.92 2.27 2.54 2.67 2.79 2.81 2.79
1.09 1.15 1.18 1.23 1.30 1.34 1.33 1.42 1.53 1.62 1.54 1.53 1.61 1.68 1.73 1.76 1.72 1.48 1.34 1.19 1.23 1.29 1.24 1.25 1.31 1.24 1.27 1.19 1.21 1.23 1.19 1.15 1.17 1.25 1.20 1.32 1.46 1.68 1.98 2.18 2.36 2.57 2.82
1.22 1.22 1.29 1.40 1.48 1.53 1.69 1.91 1.99 1.99 1.89 1.81 1.69 1.69 1.69 1.74 1.74 1.50 1.40 1.27 1.36 1.45 1.47 1.45 1.43 1.31 1.25 1.19 1.12 1.18 1.16 1.13 1.19 1.19 1.13 1.10 1.12 1.24 1.47 1.62 1.79 2.06 2.31
1.54 1.54 1.54 1.65 1.76 1.84 2.07 2.27 2.30 2.27 2.35 2.26 2.07 1.97 1.93 1.90 1.86 1.68 1.67 1.57 1.67 1.77 1.70 1.59 1.48 1.37 1.17 1.09 1.05 1.04 1.06 1.12 1.22 1.28 1.26 1.21 1.18 1.16 1.22 1.36 1.56 1.68 1.81
1.62 1.69 1.75 1.92 1.87 1.93 2.20 2.27 2.37 2.52 2.53 2.41 2.40 2.31 2.21 2.18 1.99 1.83 1.74 1.65 1.60 1.64 1.66 1.54 1.42 1.29 1.07 0.97 0.91 0.90 0.92 0.89 0.92 1.03 1.10 1.13 1.14 1.08 1.10 1.24 1.45 1.63 1.63
1.78 1.86 1.99 2.16 2.28 2.33 2.49 2.59 2.58 2.59 2.59 2.55 2.56 2.50 2.42 2.37 2.18 1.86 1.69 1.61 1.51 1.43 1.43 1.42 1.32 1.19 1.05 0.92 0.91 0.88 0.81 0.79 0.88 0.95 0.99 1.07 1.10 1.07 1.08 1.21 1.37 1.57 1.60
1.90 1.94 2.08 2.23 2.30 2.39 2.56 2.61 2.64 2.64 2.65 2.70 2.70 2.56 2.46 2.37 2.21 1.97 1.73 1.57 1.46 1.33 1.29 1.34 1.29 1.17 1.03 0.99 0.99 0.91 0.83 0.90 1.00 0.99 1.00 1.08 1.19 1.22 1.21 1.21 1.34 1.45 1.55
2.00 2.07 2.21 2.35 2.47 2.55 2.47 2.52 2.59 2.62 2.56 2.47 2.46 2.43 2.44 2.35 2.22 2.03 1.82 1.66 1.57 1.51 1.42 1.39 1.37 1.27 1.18 1.14 1.16 1.17 1.16 1.14 1.08 1.08 1.14 1.20 1.28 1.34 1.33 1.35 1.39 1.43 1.40
2.11 2.15 2.24 2.32 2.46 2.48 2.45 2.35 2.27 2.18 2.16 2.06 2.08 2.11 2.11 2.09 1.98 1.75 1.62 1.55 1.53 1.58 1.49 1.46 1.53 1.54 1.48 1.40 1.37 1.37 1.34 1.28 1.25 1.28 1.32 1.32 1.32 1.32 1.30 1.38 1.48 1.49 1.45
2.17 2.19 2.21 2.20 2.28 2.38 2.40 2.33 2.22 2.10 1.99 1.87 1.83 1.76 1.68 1.69 1.66 1.61 1.61 1.60 1.56 1.50 1.42 1.49 1.61 1.67 1.69 1.67 1.59 1.48 1.43 1.36 1.30 1.30 1.29 1.31 1.30 1.34 1.38 1.41 1.49 1.53 1.51
2.10 2.14 2.09 2.07 2.15 2.28 2.30 2.31 2.30 2.21 2.13 2.01 1.90 1.80 1.62 1.50 1.48 1.53 1.59 1.57 1.50 1.43 1.44 1.59 1.69 1.72 1.78 1.77 1.66 1.59 1.51 1.43 1.37 1.38 1.41 1.46 1.46 1.46 1.46 1.42 1.43 1.46 1.51
2.04 2.04 2.06 2.08 2.12 2.18 2.24 2.29 2.30 2.21 2.16 2.04 1.84 1.68 1.59 1.48 1.43 1.46 1.43 1.37 1.45 1.53 1.57 1.70 1.76 1.75 1.67 1.62 1.58 1.56 1.49 1.44 1.42 1.43 1.43 1.42 1.41 1.44 1.47 1.49 1.50 1.58 1.55
1.89 2.02 2.07 2.01 2.00 2.06 2.17 2.26 2.25 2.23 2.22 2.17 2.01 1.73 1.54 1.40 1.32 1.37 1.32 1.31 1.37 1.41 1.44 1.53 1.64 1.69 1.67 1.61 1.55 1.48 1.42 1.39 1.37 1.37 1.36 1.36 1.41 1.42 1.38 1.43 1.46 1.43 1.42
1.83 1.83 1.94 1.92 1.89 1.91 1.97 2.01 2.06 2.02 1.94 1.91 1.87 1.73 1.59 1.43 1.42 1.39 1.37 1.37 1.35 1.32 1.38 1.49 1.54 1.52 1.47 1.43 1.43 1.39 1.37 1.38 1.35 1.34 1.37 1.39 1.41 1.39 1.31 1.28 1.29 1.30 1.30
1.93 1.90 1.79 1.77 1.79 1.83 1.85 1.84 1.84 1.79 1.72 1.68 1.63 1.55 1.50 1.39 1.40 1.39 1.37 1.35 1.29 1.24 1.23 1.26 1.30 1.33 1.30 1.27 1.30 1.33 1.32 1.30 1.31 1.29 1.28 1.29 1.31 1.28 1.25 1.25 1.27 1.31 1.38
1.88 1.83 1.71 1.60 1.54 1.62 1.62 1.61 1.61 1.57 1.54 1.51 1.47 1.37 1.30 1.31 1.28 1.24 1.19 1.15 1.12 1.11 1.12 1.16 1.18 1.18 1.15 1.11 1.12 1.16 1.17 1.14 1.16 1.20 1.23 1.25 1.24 1.20 1.20 1.23 1.23 1.29 1.35
1.73 1.71 1.62 1.49 1.36 1.32 1.41 1.50 1.51 1.48 1.48 1.39 1.28 1.20 1.17 1.17 1.12 1.01 0.96 0.94 0.93 0.90 0.91 0.95 0.93 0.89 0.91 0.95 0.97 0.97 0.96 0.94 0.93 0.98 1.01 1.07 1.12 1.09 1.10 1.11 1.09 1.14 1.27
1.49 1.48 1.47 1.43 1.28 1.18 1.27 1.36 1.36 1.30 1.25 1.17 1.07 1.05 1.02 0.98 0.95 0.91 0.86 0.83 0.81 0.80 0.74 0.74 0.77 0.76 0.77 0.78 0.78 0.79 0.76 0.72 0.69 0.72 0.77 0.85 0.94 0.99 1.01 1.04 1.09 1.19 1.28
1.30 1.30 1.28 1.27 1.18 1.10 1.13 1.21 1.20 1.14 1.11 1.02 0.91 0.90 0.91 0.90 0.90 0.89 0.84 0.79 0.76 0.71 0.66 0.66 0.69 0.69 0.67 0.67 0.66 0.62 0.59 0.56 0.57 0.61 0.62 0.69 0.83 0.94 0.97 1.01 1.02 1.08 1.15